timestamp,wind_dir_avg,wind_spd_avg,wind_spd_max_dir,wind_spd_gust,battery_voltage,lat,long
2021-03-18 00:04:01+00:00,283.0,3.8,285.0,4.31,12.57,47.59359,-54.27349
2021-03-18 00:14:01+00:00,277.0,5.21,278.0,6.46,12.49,47.59359,-54.27349
2021-03-18 00:24:01+00:00,269.0,4.8,265.0,5.84,12.49,47.59359,-54.27349
2021-03-18 00:34:01+00:00,272.0,4.24,277.0,5.51,12.49,47.59359,-54.27349
2021-03-18 00:44:01+00:00,278.0,4.7,276.0,5.39,12.49,47.59359,-54.27349
2021-03-18 00:54:01+00:00,269.0,3.98,265.0,4.47,12.49,47.59359,-54.27349
2021-03-18 01:04:01+00:00,264.0,2.8,265.0,3.49,12.49,47.59359,-54.27349
2021-03-18 01:14:01+00:00,269.0,3.31,270.0,4.45,12.49,47.59359,-54.27349
2021-03-18 01:24:01+00:00,255.0,2.61,264.0,3.23,12.49,47.59359,-54.27349
2021-03-18 01:34:01+00:00,245.0,4.18,253.0,5.1,12.49,47.59359,-54.27349
2021-03-18 01:44:01+00:00,244.0,5.12,243.0,5.69,12.49,47.59359,-54.27349
2021-03-18 01:54:01+00:00,236.0,4.17,233.0,4.67,12.49,47.59359,-54.27349
2021-03-18 02:04:01+00:00,221.0,4.37,225.0,5.66,12.49,47.59359,-54.27349
2021-03-18 02:14:01+00:00,222.0,4.65,223.0,5.65,12.41,47.59359,-54.27349
2021-03-18 02:24:01+00:00,237.0,4.47,238.0,5.67,12.41,47.59359,-54.27349
2021-03-18 02:34:01+00:00,232.0,5.07,233.0,5.49,12.41,47.59359,-54.27349
2021-03-18 02:44:01+00:00,237.0,4.99,241.0,5.42,12.41,47.59359,-54.27349
2021-03-18 02:54:01+00:00,241.0,5.2,246.0,5.68,12.41,47.59359,-54.27349
2021-03-18 03:04:01+00:00,234.0,5.15,239.0,5.76,12.41,47.59359,-54.27349
2021-03-18 03:14:01+00:00,249.0,5.78,256.0,7.19,12.41,47.59359,-54.27349
2021-03-18 03:24:01+00:00,248.0,4.74,259.0,7.94,12.41,47.59359,-54.27349
2021-03-18 03:34:01+00:00,248.0,4.96,252.0,5.92,12.41,47.59359,-54.27349
2021-03-18 03:44:01+00:00,245.0,6.13,245.0,6.94,12.41,47.59359,-54.27349
2021-03-18 03:54:01+00:00,264.0,6.31,267.0,7.38,12.41,47.59359,-54.27349
2021-03-18 04:04:01+00:00,257.0,5.5,261.0,6.68,12.41,47.59359,-54.27349
2021-03-18 04:14:01+00:00,269.0,5.43,271.0,6.65,12.41,47.59359,-54.27349
2021-03-18 04:24:01+00:00,269.0,5.34,278.0,6.21,12.41,47.59359,-54.27349
2021-03-18 04:34:01+00:00,253.0,6.52,249.0,7.94,12.41,47.59359,-54.27349
2021-03-18 04:44:01+00:00,259.0,4.84,256.0,5.24,12.41,47.59359,-54.27349
2021-03-18 04:54:01+00:00,268.0,4.71,269.0,5.24,12.41,47.59359,-54.27349
2021-03-18 05:04:01+00:00,272.0,4.95,264.0,6.27,12.41,47.59359,-54.27349
2021-03-18 05:14:01+00:00,273.0,4.56,278.0,5.15,12.41,47.59359,-54.27349
2021-03-18 05:24:01+00:00,257.0,4.66,265.0,5.31,12.41,47.59359,-54.27349
2021-03-18 05:34:01+00:00,256.0,3.92,259.0,4.32,12.41,47.59359,-54.27349
2021-03-18 05:44:01+00:00,245.0,3.16,246.0,3.69,12.41,47.59359,-54.27349
2021-03-18 05:54:01+00:00,253.0,4.08,257.0,4.58,12.41,47.59359,-54.27349
2021-03-18 06:04:01+00:00,249.0,3.86,245.0,4.24,12.41,47.59359,-54.27349
2021-03-18 06:14:01+00:00,254.0,2.84,256.0,4.5,12.41,47.59359,-54.27349
2021-03-18 06:24:01+00:00,230.0,3.87,226.0,4.44,12.41,47.59359,-54.27349
2021-03-18 06:34:01+00:00,220.0,4.68,218.0,5.33,12.41,47.59359,-54.27349
2021-03-18 06:44:01+00:00,226.0,5.2,220.0,5.89,12.41,47.59359,-54.27349
2021-03-18 06:54:01+00:00,218.0,5.26,220.0,5.64,12.41,47.59359,-54.27349
2021-03-18 07:04:01+00:00,226.0,4.68,230.0,5.22,12.41,47.59359,-54.27349
2021-03-18 07:14:01+00:00,205.0,3.73,214.0,4.57,12.33,47.59359,-54.27349
2021-03-18 07:24:01+00:00,165.0,2.96,151.0,3.7,12.33,47.59359,-54.27349
2021-03-18 07:34:01+00:00,177.0,4.7,180.0,5.01,12.33,47.59359,-54.27349
2021-03-18 07:44:01+00:00,178.0,4.85,176.0,5.27,12.33,47.59359,-54.27349
2021-03-18 07:54:01+00:00,180.0,4.3,182.0,4.75,12.33,47.59359,-54.27349
2021-03-18 08:04:01+00:00,171.0,3.87,177.0,4.45,12.33,47.59359,-54.27349
2021-03-18 08:14:01+00:00,173.0,3.9,169.0,4.58,12.33,47.59359,-54.27349
2021-03-18 08:24:01+00:00,169.0,3.29,174.0,3.89,12.33,47.59359,-54.27349
2021-03-18 08:34:01+00:00,175.0,4.06,176.0,4.31,12.33,47.59359,-54.27349
2021-03-18 08:44:01+00:00,173.0,3.87,178.0,4.47,12.33,47.59359,-54.27349
2021-03-18 08:54:01+00:00,162.0,3.21,159.0,3.94,12.33,47.59359,-54.27349
2021-03-18 09:04:01+00:00,167.0,4.12,173.0,4.62,12.33,47.59359,-54.27349
2021-03-18 09:14:01+00:00,158.0,4.09,148.0,4.79,12.25,47.59359,-54.27349
2021-03-18 09:24:01+00:00,166.0,3.91,173.0,4.21,12.25,47.59359,-54.27349
2021-03-18 09:34:01+00:00,166.0,2.34,180.0,3.43,12.25,47.59359,-54.27349
2021-03-18 09:44:01+00:00,142.0,3.31,140.0,3.98,12.25,47.59359,-54.27349
2021-03-18 09:54:01+00:00,143.0,3.37,146.0,3.93,12.25,47.59359,-54.27349
2021-03-18 10:04:01+00:00,138.0,3.95,142.0,4.84,12.25,47.59359,-54.27349
2021-03-18 10:14:01+00:00,138.0,4.01,133.0,4.55,12.25,47.59359,-54.27349
2021-03-18 10:24:01+00:00,137.0,3.94,142.0,4.36,12.25,47.59359,-54.27349
2021-03-18 10:34:01+00:00,141.0,3.98,146.0,4.55,12.25,47.59359,-54.27349
2021-03-18 10:44:01+00:00,138.0,2.81,141.0,3.3,12.25,47.59359,-54.27349
2021-03-18 10:54:01+00:00,160.0,2.53,164.0,2.84,12.25,47.59359,-54.27349
2021-03-18 11:04:01+00:00,135.0,2.87,132.0,3.41,12.25,47.59359,-54.27349
2021-03-18 11:14:01+00:00,145.0,1.8,135.0,2.53,12.33,47.59359,-54.27349
2021-03-18 11:24:01+00:00,4.0,0.62,343.0,1.19,12.33,47.59359,-54.27349
2021-03-18 11:34:01+00:00,338.0,3.22,339.0,3.92,12.33,47.59359,-54.27349
2021-03-18 11:44:01+00:00,42.0,1.54,52.0,2.09,12.33,47.59359,-54.27349
2021-03-18 11:54:01+00:00,0.0,1.78,4.0,2.27,12.33,47.59359,-54.27349
2021-03-18 12:04:01+00:00,359.0,1.68,1.0,1.88,12.33,47.59359,-54.27349
2021-03-18 12:14:01+00:00,7.0,3.51,6.0,4.11,14.4,47.59359,-54.27349
2021-03-18 12:24:01+00:00,6.0,4.34,3.0,5.24,14.4,47.59359,-54.27349
2021-03-18 12:34:01+00:00,11.0,3.74,9.0,4.35,14.4,47.59359,-54.27349
2021-03-18 12:44:01+00:00,4.0,4.08,0.0,4.59,14.4,47.59359,-54.27349
2021-03-18 12:54:01+00:00,6.0,3.94,5.0,4.26,14.4,47.59359,-54.27349
2021-03-18 13:04:01+00:00,16.0,3.01,18.0,3.51,14.4,47.59359,-54.27349
2021-03-18 13:14:01+00:00,18.0,2.49,17.0,2.79,14.32,47.59359,-54.27349
2021-03-18 13:24:01+00:00,29.0,2.13,24.0,2.38,14.32,47.59359,-54.27349
2021-03-18 13:34:01+00:00,63.0,0.76,57.0,1.34,14.32,47.59359,-54.27349
2021-03-18 13:44:01+00:00,210.0,0.81,207.0,1.29,14.32,47.59359,-54.27349
2021-03-18 13:54:01+00:00,195.0,2.22,209.0,2.68,14.32,47.59359,-54.27349
2021-03-18 14:04:01+00:00,214.0,6.45,210.0,7.67,14.32,47.59359,-54.27349
2021-03-18 14:14:01+00:00,211.0,8.26,213.0,9.03,13.6,47.59359,-54.27349
2021-03-18 14:24:01+00:00,213.0,8.74,211.0,9.57,13.6,47.59359,-54.27349
2021-03-18 14:34:01+00:00,206.0,8.82,205.0,9.55,13.6,47.59359,-54.27349
2021-03-18 14:44:01+00:00,209.0,8.59,206.0,9.55,13.6,47.59359,-54.27349
2021-03-18 14:54:01+00:00,200.0,8.03,209.0,9.07,13.6,47.59359,-54.27349
2021-03-18 15:04:01+00:00,209.0,7.29,205.0,8.72,13.6,47.59359,-54.27349
2021-03-18 15:14:01+00:00,207.0,8.62,214.0,9.48,13.68,47.59359,-54.27349
2021-03-18 15:24:01+00:00,215.0,8.69,216.0,9.44,13.68,47.59359,-54.27349
2021-03-18 15:34:01+00:00,214.0,8.35,213.0,9.92,13.68,47.59359,-54.27349
2021-03-18 15:44:01+00:00,211.0,9.27,211.0,10.1,13.68,47.59359,-54.27349
2021-03-18 15:54:01+00:00,211.0,9.11,215.0,10.12,13.68,47.59359,-54.27349
2021-03-18 16:04:01+00:00,211.0,9.38,209.0,10.83,13.68,47.59359,-54.27349
2021-03-18 16:14:01+00:00,216.0,9.12,226.0,10.12,13.92,47.59359,-54.27349
2021-03-18 16:24:01+00:00,211.0,9.76,211.0,11.84,13.92,47.59359,-54.27349
2021-03-18 16:34:01+00:00,209.0,10.76,206.0,11.99,13.92,47.59359,-54.27349
2021-03-18 16:44:01+00:00,214.0,10.09,216.0,11.64,13.92,47.59359,-54.27349
2021-03-18 16:54:01+00:00,215.0,10.28,215.0,11.49,13.92,47.59359,-54.27349
2021-03-18 17:04:01+00:00,216.0,10.51,216.0,11.79,13.92,47.59359,-54.27349
2021-03-18 17:14:01+00:00,212.0,12.11,214.0,13.25,13.84,47.59359,-54.27349
2021-03-18 17:24:01+00:00,215.0,11.67,217.0,13.31,13.84,47.59359,-54.27349
2021-03-18 17:34:01+00:00,228.0,9.96,228.0,12.16,13.84,47.59359,-54.27349
2021-03-18 17:44:01+00:00,219.0,9.11,221.0,10.36,13.84,47.59359,-54.27349
2021-03-18 17:54:01+00:00,213.0,12.37,215.0,13.67,13.84,47.59359,-54.27349
2021-03-18 18:04:01+00:00,215.0,10.87,213.0,12.58,13.84,47.59359,-54.27349
2021-03-18 18:14:01+00:00,215.0,9.9,212.0,11.19,13.84,47.59359,-54.27349
2021-03-18 18:24:01+00:00,215.0,10.11,219.0,11.61,13.84,47.59359,-54.27349
2021-03-18 18:34:01+00:00,211.0,8.17,212.0,8.93,13.84,47.59359,-54.27349
2021-03-18 18:44:01+00:00,211.0,8.19,215.0,9.68,13.84,47.59359,-54.27349
2021-03-18 18:54:01+00:00,216.0,8.03,212.0,9.32,13.84,47.59359,-54.27349
2021-03-18 19:04:01+00:00,212.0,8.11,212.0,9.23,13.84,47.59359,-54.27349
2021-03-18 19:14:01+00:00,212.0,8.93,216.0,9.79,13.92,47.59359,-54.27349
2021-03-18 19:24:01+00:00,207.0,8.18,210.0,9.44,13.92,47.59359,-54.27349
2021-03-18 19:34:01+00:00,212.0,10.69,216.0,11.94,13.92,47.59359,-54.27349
2021-03-18 19:44:01+00:00,207.0,9.57,210.0,10.49,13.92,47.59359,-54.27349
2021-03-18 19:54:01+00:00,208.0,9.62,208.0,11.18,13.92,47.59359,-54.27349
2021-03-18 20:04:01+00:00,214.0,9.21,220.0,10.44,13.92,47.59359,-54.27349
2021-03-18 20:14:01+00:00,214.0,9.52,210.0,12.78,13.6,47.59359,-54.27349
2021-03-18 20:24:01+00:00,216.0,8.18,211.0,9.2,13.6,47.59359,-54.27349
2021-03-18 20:34:01+00:00,214.0,9.05,213.0,10.57,13.6,47.59359,-54.27349
2021-03-18 20:44:01+00:00,215.0,9.54,214.0,10.63,13.6,47.59359,-54.27349
2021-03-18 20:54:01+00:00,218.0,9.52,220.0,10.84,13.6,47.59359,-54.27349
2021-03-18 21:04:01+00:00,215.0,8.95,211.0,10.08,13.6,47.59359,-54.27349
2021-03-18 21:14:01+00:00,215.0,9.48,217.0,10.61,13.6,47.59359,-54.27349
2021-03-18 21:24:01+00:00,217.0,7.03,217.0,9.38,13.6,47.59359,-54.27349
2021-03-18 21:34:01+00:00,221.0,7.11,221.0,8.67,13.6,47.59359,-54.27349
2021-03-18 21:44:01+00:00,219.0,7.46,218.0,8.38,13.6,47.59359,-54.27349
2021-03-18 21:54:01+00:00,214.0,8.7,212.0,11.17,13.6,47.59359,-54.27349
2021-03-18 22:04:01+00:00,211.0,9.15,211.0,10.42,13.6,47.59359,-54.27349
2021-03-18 22:14:01+00:00,215.0,9.83,218.0,11.82,12.89,47.59359,-54.27349
2021-03-18 22:24:01+00:00,213.0,10.1,213.0,11.73,12.89,47.59359,-54.27349
2021-03-18 22:34:01+00:00,205.0,10.33,209.0,11.34,12.89,47.59359,-54.27349
2021-03-18 22:44:01+00:00,204.0,12.25,201.0,13.96,12.89,47.59359,-54.27349
2021-03-18 22:54:01+00:00,204.0,10.72,206.0,12.52,12.89,47.59359,-54.27349
2021-03-18 23:04:01+00:00,203.0,11.21,205.0,13.55,12.89,47.59359,-54.27349
2021-03-18 23:14:01+00:00,196.0,11.43,196.0,13.68,12.57,47.59359,-54.27349
2021-03-18 23:24:01+00:00,192.0,12.64,194.0,13.92,12.57,47.59359,-54.27349
2021-03-18 23:34:01+00:00,193.0,12.42,194.0,13.79,12.57,47.59359,-54.27349
2021-03-18 23:44:01+00:00,194.0,12.67,195.0,14.04,12.57,47.59359,-54.27349
2021-03-18 23:54:01+00:00,195.0,13.05,197.0,14.82,12.57,47.59359,-54.27349
